﻿測定場所 (Monitoring sites),日付 (Measurement date),時間 (Measurement time),線量率 最大値 (max) μGy/h,線量率 最小値 (min) μGy/h,線量率 平均値 (average) μGy/h,
八王子 (Hachioji),2016-02-28,23:01～24:00,0.0349,0.0301,0.0324,
八王子 (Hachioji),2016-02-28,22:01～23:00,0.0394,0.0314,0.0346,
八王子 (Hachioji),2016-02-28,21:01～22:00,0.0383,0.0341,0.0363,
八王子 (Hachioji),2016-02-28,20:01～21:00,0.0370,0.0307,0.0342,
八王子 (Hachioji),2016-02-28,19:01～20:00,0.0389,0.0318,0.0353,
八王子 (Hachioji),2016-02-28,18:01～19:00,0.0337,0.0296,0.0319,
八王子 (Hachioji),2016-02-28,17:01～18:00,0.0340,0.0301,0.0321,
八王子 (Hachioji),2016-02-28,16:01～17:00,0.0346,0.0304,0.0323,
八王子 (Hachioji),2016-02-28,15:01～16:00,0.0337,0.0305,0.0322,
八王子 (Hachioji),2016-02-28,14:01～15:00,0.0350,0.0305,0.0323,
八王子 (Hachioji),2016-02-28,13:01～14:00,0.0342,0.0297,0.0324,
八王子 (Hachioji),2016-02-28,12:01～13:00,0.0344,0.0301,0.0326,
八王子 (Hachioji),2016-02-28,11:01～12:00,0.0342,0.0304,0.0324,
八王子 (Hachioji),2016-02-28,10:01～11:00,0.0342,0.0310,0.0327,
八王子 (Hachioji),2016-02-28,09:01～10:00,0.0361,0.0311,0.0336,
八王子 (Hachioji),2016-02-28,08:01～09:00,0.0359,0.0320,0.0338,
八王子 (Hachioji),2016-02-28,07:01～08:00,0.0348,0.0312,0.0333,
八王子 (Hachioji),2016-02-28,06:01～07:00,0.0345,0.0308,0.0330,
八王子 (Hachioji),2016-02-28,05:01～06:00,0.0351,0.0307,0.0330,
八王子 (Hachioji),2016-02-28,04:01～05:00,0.0351,0.0303,0.0329,
八王子 (Hachioji),2016-02-28,03:01～04:00,0.0349,0.0297,0.0327,
八王子 (Hachioji),2016-02-28,02:01～03:00,0.0350,0.0298,0.0325,
八王子 (Hachioji),2016-02-28,01:01～02:00,0.0347,0.0310,0.0328,
八王子 (Hachioji),2016-02-28,00:01～01:00,0.0348,0.0312,0.0329,
八王子 (Hachioji),2016-02-27,23:01～24:00,0.0342,0.0300,0.0326,
八王子 (Hachioji),2016-02-27,22:01～23:00,0.0343,0.0300,0.0320,
八王子 (Hachioji),2016-02-27,21:01～22:00,0.0349,0.0298,0.0322,
八王子 (Hachioji),2016-02-27,20:01～21:00,0.0353,0.0292,0.0322,
八王子 (Hachioji),2016-02-27,19:01～20:00,0.0343,0.0305,0.0322,
八王子 (Hachioji),2016-02-27,18:01～19:00,0.0340,0.0305,0.0322,
八王子 (Hachioji),2016-02-27,17:01～18:00,0.0342,0.0291,0.0322,
八王子 (Hachioji),2016-02-27,16:01～17:00,0.0342,0.0303,0.0323,
八王子 (Hachioji),2016-02-27,15:01～16:00,0.0339,0.0306,0.0322,
八王子 (Hachioji),2016-02-27,14:01～15:00,0.0342,0.0300,0.0320,
八王子 (Hachioji),2016-02-27,13:01～14:00,0.0345,0.0303,0.0322,
八王子 (Hachioji),2016-02-27,12:01～13:00,0.0346,0.0305,0.0323,
八王子 (Hachioji),2016-02-27,11:01～12:00,0.0344,0.0307,0.0323,
八王子 (Hachioji),2016-02-27,10:01～11:00,0.0343,0.0307,0.0326,
八王子 (Hachioji),2016-02-27,09:01～10:00,0.0346,0.0312,0.0327,
八王子 (Hachioji),2016-02-27,08:01～09:00,0.0358,0.0309,0.0332,
八王子 (Hachioji),2016-02-27,07:01～08:00,0.0358,0.0317,0.0336,
八王子 (Hachioji),2016-02-27,06:01～07:00,0.0353,0.0317,0.0333,
八王子 (Hachioji),2016-02-27,05:01～06:00,0.0349,0.0310,0.0334,
八王子 (Hachioji),2016-02-27,04:01～05:00,0.0358,0.0319,0.0337,
八王子 (Hachioji),2016-02-27,03:01～04:00,0.0355,0.0315,0.0337,
八王子 (Hachioji),2016-02-27,02:01～03:00,0.0357,0.0310,0.0332,
八王子 (Hachioji),2016-02-27,01:01～02:00,0.0347,0.0311,0.0333,
八王子 (Hachioji),2016-02-27,00:01～01:00,0.0356,0.0305,0.0330,
八王子 (Hachioji),2016-02-26,23:01～24:00,0.0346,0.0305,0.0328,
八王子 (Hachioji),2016-02-26,22:01～23:00,0.0346,0.0308,0.0329,
八王子 (Hachioji),2016-02-26,21:01～22:00,0.0344,0.0298,0.0323,
八王子 (Hachioji),2016-02-26,20:01～21:00,0.0350,0.0307,0.0327,
八王子 (Hachioji),2016-02-26,19:01～20:00,0.0341,0.0301,0.0322,
八王子 (Hachioji),2016-02-26,18:01～19:00,0.0348,0.0305,0.0322,
八王子 (Hachioji),2016-02-26,17:01～18:00,0.0343,0.0303,0.0324,
八王子 (Hachioji),2016-02-26,16:01～17:00,0.0346,0.0296,0.0319,
八王子 (Hachioji),2016-02-26,15:01～16:00,0.0341,0.0303,0.0323,
八王子 (Hachioji),2016-02-26,14:01～15:00,0.0341,0.0304,0.0323,
八王子 (Hachioji),2016-02-26,13:01～14:00,0.0339,0.0306,0.0321,
八王子 (Hachioji),2016-02-26,12:01～13:00,0.0334,0.0310,0.0322,
八王子 (Hachioji),2016-02-26,11:01～12:00,0.0342,0.0306,0.0325,
八王子 (Hachioji),2016-02-26,10:01～11:00,0.0346,0.0304,0.0329,
八王子 (Hachioji),2016-02-26,09:01～10:00,0.0353,0.0306,0.0334,
八王子 (Hachioji),2016-02-26,08:01～09:00,0.0347,0.0308,0.0329,
八王子 (Hachioji),2016-02-26,07:01～08:00,0.0355,0.0313,0.0333,
八王子 (Hachioji),2016-02-26,06:01～07:00,0.0345,0.0312,0.0330,
八王子 (Hachioji),2016-02-26,05:01～06:00,0.0347,0.0314,0.0328,
八王子 (Hachioji),2016-02-26,04:01～05:00,0.0348,0.0310,0.0330,
八王子 (Hachioji),2016-02-26,03:01～04:00,0.0357,0.0317,0.0338,
八王子 (Hachioji),2016-02-26,02:01～03:00,0.0358,0.0316,0.0331,
八王子 (Hachioji),2016-02-26,01:01～02:00,0.0350,0.0298,0.0326,
八王子 (Hachioji),2016-02-26,00:01～01:00,0.0342,0.0298,0.0318,
八王子 (Hachioji),2016-02-25,23:01～24:00,0.0339,0.0302,0.0319,
八王子 (Hachioji),2016-02-25,22:01～23:00,0.0336,0.0299,0.0320,
八王子 (Hachioji),2016-02-25,21:01～22:00,0.0349,0.0301,0.0319,
八王子 (Hachioji),2016-02-25,20:01～21:00,0.0349,0.0293,0.0317,
八王子 (Hachioji),2016-02-25,19:01～20:00,0.0336,0.0300,0.0320,
八王子 (Hachioji),2016-02-25,18:01～19:00,0.0336,0.0290,0.0319,
八王子 (Hachioji),2016-02-25,17:01～18:00,0.0343,0.0301,0.0320,
八王子 (Hachioji),2016-02-25,16:01～17:00,0.0341,0.0301,0.0323,
八王子 (Hachioji),2016-02-25,15:01～16:00,0.0339,0.0301,0.0319,
八王子 (Hachioji),2016-02-25,14:01～15:00,0.0346,0.0302,0.0319,
八王子 (Hachioji),2016-02-25,13:01～14:00,0.0337,0.0303,0.0318,
八王子 (Hachioji),2016-02-25,12:01～13:00,0.0344,0.0300,0.0321,
八王子 (Hachioji),2016-02-25,11:01～12:00,0.0344,0.0292,0.0315,
八王子 (Hachioji),2016-02-25,10:01～11:00,0.0339,0.0293,0.0316,
八王子 (Hachioji),2016-02-25,09:01～10:00,0.0340,0.0295,0.0315,
八王子 (Hachioji),2016-02-25,08:01～09:00,0.0341,0.0289,0.0317,
八王子 (Hachioji),2016-02-25,07:01～08:00,0.0343,0.0298,0.0315,
八王子 (Hachioji),2016-02-25,06:01～07:00,0.0351,0.0309,0.0327,
八王子 (Hachioji),2016-02-25,05:01～06:00,0.0350,0.0304,0.0326,
八王子 (Hachioji),2016-02-25,04:01～05:00,0.0345,0.0308,0.0326,
八王子 (Hachioji),2016-02-25,03:01～04:00,0.0357,0.0317,0.0335,
八王子 (Hachioji),2016-02-25,02:01～03:00,0.0389,0.0331,0.0353,
八王子 (Hachioji),2016-02-25,01:01～02:00,0.0404,0.0352,0.0369,
八王子 (Hachioji),2016-02-25,00:01～01:00,0.0373,0.0329,0.0351,
八王子 (Hachioji),2016-02-24,23:01～24:00,0.0367,0.0318,0.0343,
八王子 (Hachioji),2016-02-24,22:01～23:00,0.0370,0.0321,0.0345,
八王子 (Hachioji),2016-02-24,21:01～22:00,0.0362,0.0325,0.0340,
八王子 (Hachioji),2016-02-24,20:01～21:00,0.0356,0.0312,0.0332,
八王子 (Hachioji),2016-02-24,19:01～20:00,0.0345,0.0309,0.0328,
八王子 (Hachioji),2016-02-24,18:01～19:00,0.0346,0.0309,0.0326,
八王子 (Hachioji),2016-02-24,17:01～18:00,0.0347,0.0301,0.0325,
八王子 (Hachioji),2016-02-24,16:01～17:00,0.0341,0.0304,0.0323,
八王子 (Hachioji),2016-02-24,15:01～16:00,0.0344,0.0306,0.0326,
八王子 (Hachioji),2016-02-24,14:01～15:00,0.0346,0.0310,0.0324,
八王子 (Hachioji),2016-02-24,13:01～14:00,0.0344,0.0300,0.0320,
八王子 (Hachioji),2016-02-24,12:01～13:00,0.0342,0.0294,0.0320,
八王子 (Hachioji),2016-02-24,11:01～12:00,0.0339,0.0297,0.0320,
八王子 (Hachioji),2016-02-24,10:01～11:00,0.0342,0.0279,0.0321,
八王子 (Hachioji),2016-02-24,09:01～10:00,0.0348,0.0295,0.0321,
八王子 (Hachioji),2016-02-24,08:01～09:00,0.0351,0.0292,0.0321,
八王子 (Hachioji),2016-02-24,07:01～08:00,0.0340,0.0305,0.0323,
八王子 (Hachioji),2016-02-24,06:01～07:00,0.0344,0.0306,0.0322,
八王子 (Hachioji),2016-02-24,05:01～06:00,0.0341,0.0292,0.0319,
八王子 (Hachioji),2016-02-24,04:01～05:00,0.0346,0.0303,0.0321,
八王子 (Hachioji),2016-02-24,03:01～04:00,0.0347,0.0301,0.0323,
八王子 (Hachioji),2016-02-24,02:01～03:00,0.0364,0.0313,0.0337,
八王子 (Hachioji),2016-02-24,01:01～02:00,0.0344,0.0298,0.0331,
八王子 (Hachioji),2016-02-24,00:01～01:00,0.0358,0.0300,0.0331,
八王子 (Hachioji),2016-02-23,23:01～24:00,0.0353,0.0312,0.0332,
八王子 (Hachioji),2016-02-23,22:01～23:00,0.0346,0.0305,0.0326,
八王子 (Hachioji),2016-02-23,21:01～22:00,0.0341,0.0300,0.0324,
八王子 (Hachioji),2016-02-23,20:01～21:00,0.0338,0.0295,0.0320,
八王子 (Hachioji),2016-02-23,19:01～20:00,0.0345,0.0300,0.0318,
八王子 (Hachioji),2016-02-23,18:01～19:00,0.0340,0.0297,0.0318,
八王子 (Hachioji),2016-02-23,17:01～18:00,0.0335,0.0300,0.0318,
八王子 (Hachioji),2016-02-23,16:01～17:00,0.0337,0.0300,0.0317,
八王子 (Hachioji),2016-02-23,15:01～16:00,0.0336,0.0298,0.0317,
八王子 (Hachioji),2016-02-23,14:01～15:00,0.0334,0.0299,0.0317,
八王子 (Hachioji),2016-02-23,13:01～14:00,0.0350,0.0295,0.0319,
八王子 (Hachioji),2016-02-23,12:01～13:00,0.0340,0.0312,0.0329,
